Über SilverSat
Group: 3 satellites
Beschreibung wird geladen...
Live-Position
3D-Globus wird geladen...
Nächste Überflüge
Höhenverlauf
Altitude vs Time
uPlot chart will show altitude changes over time
Zweizeiliger Elementsatz
1 66908U 98067XU 25347.69234256 .00071410 00000-0 11749-2 0 9994
2 66908 51.6298 137.6510 0004467 231.5910 128.4679 15.51689462 1765
Epoch: 13. Dez. 2025 •
Age: 15 hours
Aktueller Status
Höhe 412.6 km
Geschwindigkeit 7.67 km/s
Subsatellitenpunkt -13.71°S,
131.83°E
Startdatum 14. Sept. 2025
Alter 0.2 years
Typ other
Technische Details
Klassifizierung Payload
Masse 0.88 kg
Trockenmasse 0.88 kg
Gesamtmasse 0.88 kg
Länge 0.10 m
Durchmesser 0.10 m
Spannweite 0.40 m
Form Box+antenna
Hersteller SILVER
Bus-Typ Cubesat 1U
Phasenstatus In Orbit
Besitzer/Staat SILVER/US
Große Konstellationen
Loading constellations...